Skip Page Navigation
NASA JPL Caltech
NASA Logo - Jet Propulsion Laboratory + View the NASA Portal
+ Center for Near-Earth Object Studies
JPL Home Earth Solar System Stars & Galaxies Technology
JPL Solar System Dynamics
BODIES ORBITS EPHEMERIDES TOOLS PHYSICAL DATA DISCOVERY FAQ SITE MAP
IMPORTANT: The SSD Announcement email list is now available. Major changes are coming in the near future, including possible hostname and/or URL changes. To be notified of such changes, subscribe to this email list.

Please visit this page for more details.


JPL Small-Body Database Browser
Search: [ help ]  
249761 (2000 UG35)
Classification: Main-belt Asteroid          SPK-ID: 2249761
Ephemeris | Orbit Diagram | Orbital Elements | Mission Design | Physical Parameters | Discovery Circumstances ]

[ show orbit diagram ]
Orbital Elements at Epoch 2458600.5 (2019-Apr-27.0) TDB
Reference: JPL 13 (heliocentric ecliptic J2000)
 Element Value Uncertainty (1-sigma)   Units 
e .08542966443664993 4.3154e-08  
a 3.034991009499536 2.6869e-08 au
q 2.775712745989741 1.2798e-07 au
i 9.130279833277129 4.3628e-06 deg
node 223.9996578402967 2.803e-05 deg
peri 161.89038167 4.0955e-05 deg
M 190.4730481692326 3.1701e-05 deg
tp 2459509.933175136029
(2021-Oct-22.43317514)
0.00017783 TDB
period 1931.23240589967
5.29
2.5646e-05
7.021e-08
d
yr
n .1864094652203669 2.4754e-09 deg/d
Q 3.294269273009331 2.9164e-08 au
  Orbit Determination Parameters
   # obs. used (total)      410  
   data-arc span      6847 days (18.75 yr)  
   first obs. used      2000-09-30  
   last obs. used      2019-06-30  
   planetary ephem.      DE431  
   SB-pert. ephem.      SB431-N16  
   condition code      0  
   norm. resid. RMS      .54071  
   source      ORB  
   producer      Otto Matic  
   solution date      2019-Sep-24 04:19:03  

Additional Information
 Earth MOID = 1.78147 au 
 Jupiter MOID = 2.13268 au 
 T_jup = 3.217 
[ show covariance matrix ]

Ephemeris | Orbit Diagram | Orbital Elements | Mission Design | Physical Parameters | Discovery Circumstances ]

Physical Parameter Table
Parameter Symbol Value Units Sigma Reference Notes
absolute magnitude H 15.3   n/a MPO437160  

249761 (2000 UG35)          Discovered 2000-Oct-24 by LINEAR at Socorro
Reference: 20100923/Numbers.arcLast Updated: 2010-09-27
Ephemeris | Orbit Diagram | Orbital Elements | Mission Design | Physical Parameters | Discovery Circumstances ]
ABOUT SSD CREDITS/AWARDS PRIVACY/COPYRIGHT GLOSSARY LINKS
FirstGov 2019-Dec-11 20:35 UT
(server date/time)  
NASA Home Page
Site Manager:   Ryan S. Park
Webmaster  Alan B. Chamberlin